Showing default

HG-03, 61503

Orbit data source: Space-Track

HG-03, 61503 is a payload satellite owned by CNSA (CN) in GEO that was launched on Thu, 10 Oct 2024 UTC via a CHANG ZHENG 3B launch vehicle from the Xichang Space Center, China (XSC). Payload-class satellites include a variety of spacecraft equipped with specific instruments for various scientific and technological missions. These include communications satellites like Starlink; space stations such as the ISS; scientific satellites like the Hubble; Earth observation satellites from companies like Planet Labs, Umbra, and HawkEye 360; GPS; miniature CubeSats for education and research; and military/defense satellites.

Loading next visibility...
Identifier
61503, 2024-181A
Orbit
GEO
Country
Flag of CNCN / PRC
Related business
Manufacturer
CAST
Mission
Operational Civil Communications
Bus & Motor
DFH-4?, FY-25?
Mass
~4,000 kg wet, ~2,000 kg dry
Launch date (UTC)
2024-10-10 (1 year ago)
Launch vehicle
CHANG ZHENG 3B
Launch site
Xichang Space Center, China (XSC)
Object type
Payload
Rocket body
Debris
Shape & HBR
Box + 2 Pan, 10.0 m
Radar Cross Section
17.671 m², Large (>1 m²)

Expand to show TLE details & history
Last TLE update: 19 hours ago

TLE from 19 hours ago
0 HG-03
1 61503U 24181A   26033.77115925 -.00000250  00000-0  00000-0 0  9990
2 61503   0.0220  49.6249 0000464 138.8648 144.8853  1.00266323  5479
Epoch: 2026-02-02T18:30Z
TLE epoch observation values (Epoch: 2026-02-02T18:30:28.159Z)
Latitude
-0.04145°
Longitude
-77.16264°
Altitude
35,789.227 km
Speed
3.075 km/s
True Right ascension
22h 13m 39s
True Declination
0° 02' 29"
Sunlit
Object was in daylight at epoch
Visualization orbit readout
Latitude
Unknown
Longitude
Unknown
Altitude
Unknown
Speed
Unknown
Apparent Right ascension
Unknown
Apparent Declination
Unknown
Sunlit
N/A
Visualization observer readout
Local Sidereal Time
15:26:37
Azimuth
Unknown
Elevation
Unknown
Doppler factor
Unknown
Orbital elements
Apogee altitude
35,791.153 km
Perigee altitude
35,787.24 km
Semi-major axis
42,167.334 km
Eccentricity
0.00005
Inclination
0.022°
RAAN
49.6249°
Arg. of periapsis
138.8648°
True anomaly
144.88836°
Mean anomaly
144.8853°
Eccentric anomaly
144.88683°
Mean motion
0.25066 °/min
Orbital period
1,436.23 mins
BSTAR
0
Loading maneuver chart data...
Computing Atmospheric mass density...
Loading historical data...
Loading historical data...
Loading historical data...
Loading historical data...
Loading historical data...
Loading historical data...
Loading historical data...
Other satellites on launch #181 in the year 2024 (2024-10-10 UTC)

Documentation

Showing up to 5 results
|